,,Stat6,,Stat2,,Stat8,,Stat9,,Stat10,,Wind1,,Wind1,
time,status,PA1M_AVG,status,PR1M_SUM,status,RH1M_AVG,status,SR1M_AVG,status,TA1M_AVG,status,W1dAve1m,status,W1sAve1m,
2007-10-16, 00:00:00,VALID,918.923,VALID,0,VALID,100,VALID,-0.0679233,VALID,19.4525,VALID,141,VALID,0,
2007-10-16, 00:01:00,VALID,918.902,VALID,0,VALID,100,VALID,-0.0509425,VALID,19.4333,VALID,141,VALID,0,
2007-10-16, 00:02:00,VALID,918.871,VALID,0,VALID,100,VALID,-0.101885,VALID,19.4138,VALID,141,VALID,0,
2007-10-16, 00:03:00,VALID,918.851,VALID,0,VALID,100,VALID,-0.101885,VALID,19.4168,VALID,141,VALID,0,
2007-10-16, 00:04:00,VALID,918.83,VALID,0,VALID,100,VALID,-0.101885,VALID,19.417,VALID,141,VALID,0,
2007-10-16, 00:05:00,VALID,918.82,VALID,0,VALID,100,VALID,-0.0849042,VALID,19.3941,VALID,141,VALID,0,
2007-10-16, 00:06:00,VALID,918.813,VALID,0,VALID,100,VALID,-0.0679233,VALID,19.3809,VALID,141,VALID,0.0169922,
2007-10-16, 00:07:00,VALID,918.793,VALID,0,VALID,100,VALID,-0.0849042,VALID,19.3811,VALID,141,VALID,0.289249,
2007-10-16, 00:08:00,VALID,918.771,VALID,0,VALID,100,VALID,-0.0679233,VALID,19.3642,VALID,141,VALID,0.427455,
2007-10-16, 00:09:00,VALID,918.755,VALID,0,VALID,100,VALID,-0.0679233,VALID,19.3809,VALID,160,VALID,0.47093,
2007-10-16, 00:10:00,VALID,918.73,VALID,0,VALID,100,VALID,-0.101885,VALID,19.3874,VALID,188,VALID,0.388445,
2007-10-16, 00:11:00,VALID,918.718,VALID,0,VALID,100,VALID,-0.0679233,VALID,19.3936,VALID,189,VALID,0.298328,
2007-10-16, 00:12:00,VALID,918.694,VALID,0,VALID,100,VALID,-0.0339617,VALID,19.3936,VALID,189,VALID,0.251817,
2007-10-16, 00:13:00,VALID,918.689,VALID,0,VALID,100,VALID,-0.0679233,VALID,19.3831,VALID,189,VALID,0.372796,
2007-10-16, 00:14:00,VALID,918.677,VALID,0,VALID,100,VALID,-0.0849042,VALID,19.3899,VALID,189,VALID,0.53561,
2007-10-16, 00:15:00,VALID,918.678,VALID,0,VALID,100,VALID,-0.0679233,VALID,19.3968,VALID,199,VALID,0.628634,
2007-10-16, 00:16:00,VALID,918.668,VALID,0,VALID,100,VALID,-0.0509425,VALID,19.3938,VALID,210,VALID,0.653232,
2007-10-16, 00:17:00,VALID,918.676,VALID,0,VALID,100,VALID,-0.0679233,VALID,19.3938,VALID,223,VALID,0.508984,
2007-10-16, 00:18:00,VALID,918.678,VALID,0,VALID,100,VALID,-0.0509425,VALID,19.3971,VALID,225,VALID,0.64027,
2007-10-16, 00:19:00,VALID,918.683,VALID,0,VALID,100,VALID,-0.0509425,VALID,19.3866,VALID,230,VALID,0.979883,
2007-10-16, 00:20:00,VALID,918.675,VALID,0,VALID,100,VALID,-0.0849042,VALID,19.4003,VALID,232,VALID,0.975229,
2007-10-16, 00:21:00,VALID,918.669,VALID,0,VALID,100,VALID,-0.0509425,VALID,19.3971,VALID,249,VALID,0.778993,
2007-10-16, 00:22:00,VALID,918.663,VALID,0,VALID,100,VALID,-0.0339617,VALID,19.3899,VALID,246,VALID,0.918527,
2007-10-16, 00:23:00,VALID,918.658,VALID,0,VALID,100,VALID,-0.0169808,VALID,19.3734,VALID,233,VALID,0.920603,
2007-10-16, 00:24:00,VALID,918.653,VALID,0,VALID,100,VALID,-0.0169808,VALID,19.3896,VALID,235,VALID,0.972301,
2007-10-16, 00:25:00,VALID,918.669,VALID,0,VALID,100,VALID,-0.0849042,VALID,19.3901,VALID,234,VALID,0.608285,
2007-10-16, 00:26:00,VALID,918.673,VALID,0,VALID,100,VALID,-0.0339617,VALID,19.3903,VALID,232,VALID,0.52798,
2007-10-16, 00:27:00,VALID,918.688,VALID,0,VALID,100,VALID,-0.0339617,VALID,19.3869,VALID,222,VALID,0.712081,
2007-10-16, 00:28:00,VALID,918.709,VALID,0,VALID,100,VALID,-0.0169808,VALID,19.3771,VALID,213,VALID,0.322545,
2007-10-16, 00:29:00,VALID,918.722,VALID,0,VALID,100,VALID,-0.0509425,VALID,19.3968,VALID,228,VALID,0.515443,
2007-10-16, 00:30:00,VALID,918.724,VALID,0,VALID,100,VALID,-0.0169808,VALID,19.3996,VALID,204,VALID,0.612571,
2007-10-16, 00:31:00,VALID,918.732,VALID,0,VALID,100,VALID,-0.0339617,VALID,19.3998,VALID,200,VALID,0.205078,
2007-10-16, 00:32:00,VALID,918.755,VALID,0,VALID,100,VALID,-0.0679233,VALID,19.4033,VALID,200,VALID,0.510547,
2007-10-16, 00:33:00,VALID,918.763,VALID,0,VALID,100,VALID,-0.0509425,VALID,19.4128,VALID,183,VALID,0.691964,
2007-10-16, 00:34:00,VALID,918.763,VALID,0,VALID,100,VALID,-0.101885,VALID,19.4128,VALID,177,VALID,0.848214,
2007-10-16, 00:35:00,VALID,918.786,VALID,0,VALID,100,VALID,-0.0679233,VALID,19.4006,VALID,183,VALID,0.910429,
2007-10-16, 00:36:00,VALID,918.809,VALID,0,VALID,100,VALID,-0.0849042,VALID,19.3938,VALID,191,VALID,0.966463,
2007-10-16, 00:37:00,VALID,918.811,VALID,0,VALID,100,VALID,-0.0679233,VALID,19.3941,VALID,189,VALID,0.947852,
2007-10-16, 00:38:00,VALID,918.817,VALID,0,VALID,100,VALID,-0.0509425,VALID,19.3734,VALID,185,VALID,1.23201,
2007-10-16, 00:39:00,VALID,918.836,VALID,0,VALID,100,VALID,-0.0509425,VALID,19.3769,VALID,184,VALID,1.06143,
2007-10-16, 00:40:00,VALID,918.842,VALID,0,VALID,100,VALID,-0.0339617,VALID,19.3736,VALID,164,VALID,1.01086,
2007-10-16, 00:41:00,VALID,918.841,VALID,0,VALID,100,VALID,-0.0339617,VALID,19.4001,VALID,177,VALID,0.919513,
2007-10-16, 00:42:00,VALID,918.826,VALID,0,VALID,100,VALID,-0.0169808,VALID,19.4163,VALID,168,VALID,1.24466,
2007-10-16, 00:43:00,VALID,918.819,VALID,0,VALID,100,VALID,-0.0509425,VALID,19.4323,VALID,197,VALID,0.885352,
2007-10-16, 00:44:00,VALID,918.815,VALID,0,VALID,100,VALID,-0.0169808,VALID,19.4622,VALID,185,VALID,1.0992,
2007-10-16, 00:45:00,VALID,918.801,VALID,0,VALID,100,VALID,-0.0339617,VALID,19.4587,VALID,183,VALID,1.16267,
2007-10-16, 00:46:00,VALID,918.815,VALID,0,VALID,100,VALID,-0.101885,VALID,19.4655,VALID,176,VALID,1.03563,
2007-10-16, 00:47:00,VALID,918.824,VALID,0,VALID,100,VALID,-0.0509425,VALID,19.4677,VALID,173,VALID,1.05291,
2007-10-16, 00:48:00,VALID,918.839,VALID,0,VALID,100,VALID,-0.0509425,VALID,19.5044,VALID,169,VALID,1.14371,
2007-10-16, 00:49:00,VALID,918.865,VALID,0,VALID,100,VALID,-0.0679233,VALID,19.5111,VALID,171,VALID,1.10527,
2007-10-16, 00:50:00,VALID,918.883,VALID,0,VALID,100,VALID,0,VALID,19.4904,VALID,169,VALID,1.48828,
2007-10-16, 00:51:00,VALID,918.909,VALID,0,VALID,100,VALID,-0.0339617,VALID,19.4874,VALID,184,VALID,1.22475,
2007-10-16, 00:52:00,VALID,918.904,VALID,0,VALID,100,VALID,-0.0169808,VALID,19.5069,VALID,162,VALID,0.686498,
2007-10-16, 00:53:00,VALID,918.893,VALID,0,VALID,100,VALID,-0.0679233,VALID,19.5032,VALID,181,VALID,1.11488,
2007-10-16, 00:54:00,VALID,918.866,VALID,0,VALID,100,VALID,-0.0509425,VALID,19.5101,VALID,200,VALID,0.905869,
2007-10-16, 00:55:00,VALID,918.844,VALID,0,VALID,100,VALID,-0.0679233,VALID,19.5074,VALID,181,VALID,0.907315,
2007-10-16, 00:56:00,VALID,918.828,VALID,0,VALID,100,VALID,-0.0509425,VALID,19.5076,VALID,210,VALID,0.847942,
2007-10-16, 00:57:00,VALID,918.817,VALID,0,VALID,100,VALID,-0.0509425,VALID,19.5036,VALID,189,VALID,1.01649,
2007-10-16, 00:58:00,VALID,918.78,VALID,0,VALID,100,VALID,-0.0169808,VALID,19.5036,VALID,196,VALID,1.07068,
2007-10-16, 00:59:00,VALID,918.757,VALID,0,VALID,100,VALID,-0.0679233,VALID,19.5044,VALID,196,VALID,0.718568,
2007-10-16, 01:00:00,VALID,918.727,VALID,0,VALID,100,VALID,-0.0169808,VALID,19.4939,VALID,186,VALID,0.503374,
2007-10-16, 01:01:00,VALID,918.694,VALID,0,VALID,100,VALID,-0.0509425,VALID,19.4912,VALID,189,VALID,0.80069,
2007-10-16, 01:02:00,VALID,918.664,VALID,0,VALID,100,VALID,-0.0849042,VALID,19.465,VALID,207,VALID,0.65,
2007-10-16, 01:03:00,VALID,918.635,VALID,0,VALID,100,VALID,-0.0849042,VALID,19.4547,VALID,198,VALID,0.584794,
2007-10-16, 01:04:00,VALID,918.634,VALID,0,VALID,100,VALID,-0.0169808,VALID,19.4552,VALID,200,VALID,0.962984,
2007-10-16, 01:05:00,VALID,918.631,VALID,0,VALID,100,VALID,-0.0509425,VALID,19.4525,VALID,199,VALID,1.05804,
2007-10-16, 01:06:00,VALID,918.615,VALID,0,VALID,100,VALID,-0.0169808,VALID,19.429,VALID,203,VALID,0.907012,
2007-10-16, 01:07:00,VALID,918.613,VALID,0,VALID,100,VALID,0.0509425,VALID,19.4216,VALID,210,VALID,0.978516,
2007-10-16, 01:08:00,VALID,918.607,VALID,0,VALID,100,VALID,0,VALID,19.4176,VALID,219,VALID,0.867188,
2007-10-16, 01:09:00,VALID,918.589,VALID,0,VALID,100,VALID,0.0509425,VALID,19.4146,VALID,220,VALID,1.06992,
2007-10-16, 01:10:00,VALID,918.585,VALID,0,VALID,100,VALID,0.0679233,VALID,19.4049,VALID,225,VALID,1.07937,
2007-10-16, 01:11:00,VALID,918.582,VALID,0,VALID,100,VALID,0.0509425,VALID,19.3916,VALID,218,VALID,1.08947,
2007-10-16, 01:12:00,VALID,918.571,VALID,0,VALID,100,VALID,0.0169808,VALID,19.3989,VALID,223,VALID,0.882241,
2007-10-16, 01:13:00,VALID,918.576,VALID,0,VALID,100,VALID,0.0339617,VALID,19.3886,VALID,222,VALID,0.872713,
2007-10-16, 01:14:00,VALID,918.568,VALID,0,VALID,100,VALID,0.0169808,VALID,19.3789,VALID,215,VALID,0.681046,
2007-10-16, 01:15:00,VALID,918.555,VALID,0,VALID,100,VALID,0.0339617,VALID,19.3722,VALID,217,VALID,0.562318,
2007-10-16, 01:16:00,VALID,918.551,VALID,0,VALID,100,VALID,0.0339617,VALID,19.3789,VALID,213,VALID,0.628997,
2007-10-16, 01:17:00,VALID,918.536,VALID,0,VALID,100,VALID,0.0509425,VALID,19.3657,VALID,204,VALID,0.8125,
2007-10-16, 01:18:00,VALID,918.518,VALID,0,VALID,100,VALID,0.0339617,VALID,19.3622,VALID,198,VALID,0.751674,
2007-10-16, 01:19:00,VALID,918.513,VALID,0,VALID,100,VALID,0.0169808,VALID,19.3592,VALID,200,VALID,0.759146,
2007-10-16, 01:20:00,VALID,918.482,VALID,0,VALID,100,VALID,0.0509425,VALID,19.3467,VALID,206,VALID,0.710029,
2007-10-16, 01:21:00,VALID,918.479,VALID,0,VALID,100,VALID,0.0169808,VALID,19.3362,VALID,206,VALID,0.53404,
2007-10-16, 01:22:00,VALID,918.468,VALID,0,VALID,100,VALID,0,VALID,19.3342,VALID,202,VALID,0.534446,
2007-10-16, 01:23:00,VALID,918.452,VALID,0,VALID,100,VALID,0.0679233,VALID,19.3265,VALID,197,VALID,0.601563,
2007-10-16, 01:24:00,VALID,918.433,VALID,0,VALID,100,VALID,0.0849042,VALID,19.307,VALID,197,VALID,0.616815,
2007-10-16, 01:25:00,VALID,918.425,VALID,0,VALID,100,VALID,0.0849042,VALID,19.3036,VALID,197,VALID,0.543713,
2007-10-16, 01:26:00,VALID,918.395,VALID,0,VALID,100,VALID,0.0849042,VALID,19.2941,VALID,195,VALID,0.637957,
2007-10-16, 01:27:00,VALID,918.393,VALID,0,VALID,100,VALID,0.0509425,VALID,19.3048,VALID,193,VALID,0.897461,
2007-10-16, 01:28:00,VALID,918.367,VALID,0,VALID,100,VALID,0.0169808,VALID,19.2811,VALID,182,VALID,0.955793,
2007-10-16, 01:29:00,VALID,918.36,VALID,0,VALID,100,VALID,0.0679233,VALID,19.2781,VALID,189,VALID,0.832508,
2007-10-16, 01:30:00,VALID,918.349,VALID,0,VALID,100,VALID,0.0679233,VALID,19.2681,VALID,194,VALID,1.18892,
2007-10-16, 01:31:00,VALID,918.341,VALID,0,VALID,100,VALID,0.0339617,VALID,19.2783,VALID,193,VALID,0.937137,
2007-10-16, 01:32:00,VALID,918.345,VALID,0,VALID,100,VALID,0.0679233,VALID,19.2781,VALID,201,VALID,1.44059,
2007-10-16, 01:33:00,VALID,918.331,VALID,0,VALID,100,VALID,0.0169808,VALID,19.2781,VALID,206,VALID,1.33293,
2007-10-16, 01:34:00,VALID,918.325,VALID,0,VALID,100,VALID,0.0339617,VALID,19.2811,VALID,207,VALID,1.00363,
2007-10-16, 01:35:00,VALID,918.315,VALID,0,VALID,100,VALID,0.0339617,VALID,19.2681,VALID,199,VALID,1.80618,
2007-10-16, 01:36:00,VALID,918.324,VALID,0,VALID,100,VALID,0.0679233,VALID,19.2781,VALID,197,VALID,1.40835,
2007-10-16, 01:37:00,VALID,918.329,VALID,0,VALID,100,VALID,-0.0339617,VALID,19.286,VALID,194,VALID,1.2166,
2007-10-16, 01:38:00,VALID,918.347,VALID,0,VALID,100,VALID,0,VALID,19.2793,VALID,192,VALID,0.859747,
2007-10-16, 01:39:00,VALID,918.349,VALID,0,VALID,100,VALID,-0.0509425,VALID,19.2636,VALID,190,VALID,0.951219,
2007-10-16, 01:40:00,VALID,918.343,VALID,0,VALID,100,VALID,-0.0679233,VALID,19.2444,VALID,194,VALID,1.32195,
2007-10-16, 01:41:00,VALID,918.335,VALID,0,VALID,100,VALID,-0.0679233,VALID,19.2144,VALID,206,VALID,1.0375,
2007-10-16, 01:42:00,VALID,918.325,VALID,0,VALID,100,VALID,-0.0509425,VALID,19.2314,VALID,202,VALID,0.889236,
2007-10-16, 01:43:00,VALID,918.306,VALID,0,VALID,100,VALID,-0.0849042,VALID,19.2187,VALID,200,VALID,0.804688,
2007-10-16, 01:44:00,VALID,918.296,VALID,0,VALID,100,VALID,-0.0339617,VALID,19.195,VALID,212,VALID,0.916159,
2007-10-16, 01:45:00,VALID,918.3,VALID,0,VALID,100,VALID,-0.0849042,VALID,19.1952,VALID,202,VALID,1.03563,
2007-10-16, 01:46:00,VALID,918.294,VALID,0,VALID,100,VALID,-0.0679233,VALID,19.1852,VALID,196,VALID,1.18129,
2007-10-16, 01:47:00,VALID,918.264,VALID,0,VALID,100,VALID,0,VALID,19.185,VALID,195,VALID,0.85404,
2007-10-16, 01:48:00,VALID,918.237,VALID,0,VALID,100,VALID,-0.0509425,VALID,19.1885,VALID,208,VALID,0.756479,
2007-10-16, 01:49:00,VALID,918.225,VALID,0,VALID,100,VALID,0,VALID,19.182,VALID,200,VALID,0.79707,
2007-10-16, 01:50:00,VALID,918.226,VALID,0,VALID,100,VALID,-0.0169808,VALID,19.1822,VALID,225,VALID,0.594283,
2007-10-16, 01:51:00,VALID,918.22,VALID,0,VALID,100,VALID,-0.0679233,VALID,19.182,VALID,184,VALID,0.687305,
2007-10-16, 01:52:00,VALID,918.219,VALID,0,VALID,100,VALID,-0.0679233,VALID,19.1857,VALID,208,VALID,0.939631,
2007-10-16, 01:53:00,VALID,918.227,VALID,0,VALID,100,VALID,-0.0849042,VALID,19.1857,VALID,203,VALID,0.423473,
2007-10-16, 01:54:00,VALID,918.208,VALID,0,VALID,100,VALID,-0.0849042,VALID,19.1887,VALID,224,VALID,0.607813,
2007-10-16, 01:55:00,VALID,918.201,VALID,0,VALID,100,VALID,-0.0679233,VALID,19.1985,VALID,247,VALID,0.423018,
2007-10-16, 01:56:00,VALID,918.222,VALID,0,VALID,100,VALID,-0.101885,VALID,19.2149,VALID,254,VALID,0.170922,
2007-10-16, 01:57:00,VALID,918.229,VALID,0,VALID,100,VALID,-0.0849042,VALID,19.2187,VALID,217,VALID,0.52255,
2007-10-16, 01:58:00,VALID,918.254,VALID,0,VALID,100,VALID,-0.0849042,VALID,19.2154,VALID,238,VALID,0.168713,
2007-10-16, 01:59:00,VALID,918.279,VALID,0,VALID,100,VALID,-0.0849042,VALID,19.2251,VALID,238,VALID,0,
2007-10-16, 02:00:00,VALID,918.299,VALID,0,VALID,100,VALID,-0.0849042,VALID,19.2182,VALID,239,VALID,0.141513,
2007-10-16, 02:01:00,VALID,918.291,VALID,0,VALID,100,VALID,-0.101885,VALID,19.2017,VALID,223,VALID,0.763081,
2007-10-16, 02:02:00,VALID,918.276,VALID,0,VALID,100,VALID,-0.101885,VALID,19.1885,VALID,240,VALID,0.499628,
2007-10-16, 02:03:00,VALID,918.288,VALID,0,VALID,100,VALID,-0.101885,VALID,19.1887,VALID,227,VALID,1.08438,
2007-10-16, 02:04:00,VALID,918.289,VALID,0,VALID,100,VALID,-0.0679233,VALID,19.189,VALID,222,VALID,1.16369,
2007-10-16, 02:05:00,VALID,918.284,VALID,0,VALID,100,VALID,-0.0849042,VALID,19.183,VALID,227,VALID,1.09801,
2007-10-16, 02:06:00,VALID,918.262,VALID,0,VALID,100,VALID,-0.0849042,VALID,19.1663,VALID,225,VALID,1.34908,
2007-10-16, 02:07:00,VALID,918.257,VALID,0,VALID,100,VALID,-0.0169808,VALID,19.1715,VALID,224,VALID,1.36156,
2007-10-16, 02:08:00,VALID,918.225,VALID,0,VALID,100,VALID,0.0169808,VALID,19.1678,VALID,208,VALID,1.30069,
2007-10-16, 02:09:00,VALID,918.224,VALID,0,VALID,100,VALID,0.0169808,VALID,19.178,VALID,188,VALID,0.966844,
2007-10-16, 02:10:00,VALID,918.222,VALID,0,VALID,100,VALID,0,VALID,19.1815,VALID,171,VALID,0.520433,
2007-10-16, 02:11:00,VALID,918.2,VALID,0,VALID,100,VALID,0.0169808,VALID,19.1845,VALID,192,VALID,1.20833,
2007-10-16, 02:12:01,VALID,918.188,VALID,0,VALID,100,VALID,0,VALID,19.1945,VALID,212,VALID,0.833807,
2007-10-16, 02:13:00,VALID,918.169,VALID,0,VALID,100,VALID,0,VALID,19.1973,VALID,216,VALID,0.773628,
2007-10-16, 02:14:00,VALID,918.157,VALID,0,VALID,100,VALID,0.0169808,VALID,19.2077,VALID,215,VALID,0.404297,
2007-10-16, 02:15:00,VALID,918.137,VALID,0,VALID,100,VALID,0.0169808,VALID,19.2045,VALID,215,VALID,0.613009,
2007-10-16, 02:16:00,VALID,918.125,VALID,0,VALID,100,VALID,0.0509425,VALID,19.1838,VALID,206,VALID,0.891768,
2007-10-16, 02:17:00,VALID,918.123,VALID,0,VALID,100,VALID,0.0679233,VALID,19.1741,VALID,202,VALID,0.441592,
2007-10-16, 02:18:00,VALID,918.114,VALID,0,VALID,100,VALID,0.0339617,VALID,19.2007,VALID,183,VALID,0.835737,
2007-10-16, 02:19:00,VALID,918.126,VALID,0,VALID,100,VALID,0,VALID,19.1943,VALID,162,VALID,1.02969,
2007-10-16, 02:20:00,VALID,918.134,VALID,0,VALID,100,VALID,0.0169808,VALID,19.214,VALID,171,VALID,1.25145,
2007-10-16, 02:21:01,VALID,918.131,VALID,0,VALID,100,VALID,0.0339617,VALID,19.2397,VALID,167,VALID,1.11372,
2007-10-16, 02:22:01,VALID,918.113,VALID,0,VALID,100,VALID,0.0509425,VALID,19.2559,VALID,165,VALID,1.25857,
2007-10-16, 02:23:00,VALID,918.085,VALID,0,VALID,100,VALID,0,VALID,19.2651,VALID,141,VALID,1.20022,
2007-10-16, 02:24:00,VALID,918.064,VALID,0,VALID,100,VALID,0.0169808,VALID,19.2654,VALID,123,VALID,1.12163,
2007-10-16, 02:25:00,VALID,918.051,VALID,0,VALID,100,VALID,0,VALID,19.2719,VALID,129,VALID,1.20201,
2007-10-16, 02:26:00,VALID,918.031,VALID,0,VALID,100,VALID,0.0169808,VALID,19.2818,VALID,123,VALID,1.35957,
2007-10-16, 02:27:01,VALID,918.022,VALID,0,VALID,100,VALID,0.0169808,VALID,19.2551,VALID,120,VALID,1.0943,
2007-10-16, 02:28:00,VALID,917.998,VALID,0,VALID,100,VALID,0.0169808,VALID,19.2459,VALID,137,VALID,0.879492,
2007-10-16, 02:29:00,VALID,917.983,VALID,0,VALID,100,VALID,0,VALID,19.2202,VALID,139,VALID,0.774858,
2007-10-16, 02:30:01,VALID,917.969,VALID,0,VALID,100,VALID,0,VALID,19.1975,VALID,146,VALID,0.587153,
2007-10-16, 02:31:00,VALID,917.953,VALID,0,VALID,100,VALID,0,VALID,19.1815,VALID,143,VALID,0.926897,
2007-10-16, 02:32:00,VALID,917.925,VALID,0,VALID,100,VALID,0,VALID,19.1648,VALID,137,VALID,0.945884,
2007-10-16, 02:33:01,VALID,917.895,VALID,0,VALID,100,VALID,0.0169808,VALID,19.1648,VALID,139,VALID,0.58724,
2007-10-16, 02:34:01,VALID,917.877,VALID,0,VALID,100,VALID,0.0339617,VALID,19.1518,VALID,168,VALID,0.70585,
2007-10-16, 02:35:00,VALID,917.84,VALID,0,VALID,100,VALID,0.0169808,VALID,19.1391,VALID,190,VALID,1.05043,
2007-10-16, 02:36:00,VALID,917.822,VALID,0,VALID,100,VALID,0,VALID,19.1194,VALID,197,VALID,1.1974,
2007-10-16, 02:37:01,VALID,917.823,VALID,0,VALID,100,VALID,-0.0849042,VALID,19.1341,VALID,192,VALID,1.0129,
2007-10-16, 02:38:01,VALID,917.825,VALID,0,VALID,100,VALID,-0.0849042,VALID,19.1209,VALID,181,VALID,0.927148,
2007-10-16, 02:39:00,VALID,917.817,VALID,0,VALID,100,VALID,-0.0849042,VALID,19.1246,VALID,181,VALID,1.19707,
2007-10-16, 02:40:01,VALID,917.83,VALID,0,VALID,100,VALID,-0.101885,VALID,19.1216,VALID,175,VALID,1.1788,
2007-10-16, 02:41:01,VALID,917.842,VALID,0,VALID,100,VALID,-0.0849042,VALID,19.1144,VALID,203,VALID,1.07831,
2007-10-16, 02:42:01,VALID,917.838,VALID,0,VALID,100,VALID,-0.0849042,VALID,19.1079,VALID,180,VALID,1.38986,
2007-10-16, 02:43:00,VALID,917.84,VALID,0,VALID,100,VALID,-0.0849042,VALID,19.0884,VALID,172,VALID,1.36639,
2007-10-16, 02:44:00,VALID,917.823,VALID,0,VALID,100,VALID,-0.0849042,VALID,19.0889,VALID,176,VALID,1.32533,
2007-10-16, 02:45:01,VALID,917.819,VALID,0,VALID,100,VALID,-0.0849042,VALID,19.0819,VALID,174,VALID,1.00191,
2007-10-16, 02:46:00,VALID,917.819,VALID,0,VALID,100,VALID,-0.101885,VALID,19.0694,VALID,179,VALID,1.09695,
2007-10-16, 02:47:01,VALID,917.826,VALID,0,VALID,100,VALID,-0.101885,VALID,19.0587,VALID,174,VALID,1.01776,
2007-10-16, 02:48:00,VALID,917.85,VALID,0,VALID,100,VALID,-0.101885,VALID,19.069,VALID,183,VALID,0.935764,
2007-10-16, 02:49:00,VALID,917.869,VALID,0,VALID,100,VALID,-0.0849042,VALID,19.0523,VALID,184,VALID,0.587573,
2007-10-16, 02:50:00,VALID,917.874,VALID,0,VALID,100,VALID,-0.0849042,VALID,19.0465,VALID,187,VALID,0.564453,
2007-10-16, 02:51:01,VALID,917.871,VALID,0,VALID,100,VALID,-0.0849042,VALID,19.0363,VALID,191,VALID,0.0731027,
2007-10-16, 02:52:00,VALID,917.867,VALID,0,VALID,100,VALID,-0.0339617,VALID,19.027,VALID,196,VALID,0.568026,
2007-10-16, 02:53:00,VALID,917.859,VALID,0,VALID,100,VALID,-0.0169808,VALID,19.027,VALID,196,VALID,0.304116,
2007-10-16, 02:54:01,VALID,917.852,VALID,0,VALID,100,VALID,0,VALID,19.0168,VALID,223,VALID,0.353299,
2007-10-16, 02:55:01,VALID,917.86,VALID,0,VALID,100,VALID,-0.0509425,VALID,19.0243,VALID,295,VALID,0.412427,
2007-10-16, 02:56:01,VALID,917.869,VALID,0,VALID,100,VALID,-0.0169808,VALID,19.0138,VALID,296,VALID,0.322311,
2007-10-16, 02:57:00,VALID,917.884,VALID,0,VALID,100,VALID,0,VALID,19.0071,VALID,297,VALID,0,
2007-10-16, 02:58:00,VALID,917.899,VALID,0,VALID,100,VALID,-0.0169808,VALID,19.0103,VALID,297,VALID,0,
2007-10-16, 02:59:01,VALID,917.912,VALID,0,VALID,100,VALID,-0.0339617,VALID,19.0106,VALID,297,VALID,0,
2007-10-16, 03:00:01,VALID,917.922,VALID,0,VALID,100,VALID,-0.0509425,VALID,18.9973,VALID,290,VALID,0,
2007-10-16, 03:01:00,VALID,917.907,VALID,0,VALID,100,VALID,-0.0339617,VALID,18.9941,VALID,253,VALID,0,
2007-10-16, 03:02:01,VALID,917.897,VALID,0,VALID,100,VALID,-0.0509425,VALID,18.9879,VALID,253,VALID,0,
2007-10-16, 03:03:00,VALID,917.903,VALID,0,VALID,100,VALID,0,VALID,18.9841,VALID,199,VALID,0.332031,
2007-10-16, 03:04:00,VALID,917.887,VALID,0,VALID,100,VALID,-0.0509425,VALID,18.9971,VALID,191,VALID,0.686166,
2007-10-16, 03:05:01,VALID,917.882,VALID,0,VALID,100,VALID,-0.0169808,VALID,19.0041,VALID,175,VALID,0.627287,
2007-10-16, 03:06:00,VALID,917.877,VALID,0,VALID,100,VALID,-0.0169808,VALID,18.9679,VALID,190,VALID,0.470796,
2007-10-16, 03:07:01,VALID,917.881,VALID,0,VALID,100,VALID,-0.0849042,VALID,18.9791,VALID,195,VALID,0.101749,
2007-10-16, 03:08:01,VALID,917.846,VALID,0,VALID,100,VALID,-0.101885,VALID,18.9761,VALID,193,VALID,0.68093,
2007-10-16, 03:09:01,VALID,917.834,VALID,0,VALID,100,VALID,-0.186789,VALID,18.9726,VALID,183,VALID,0.692472,
2007-10-16, 03:10:01,VALID,917.823,VALID,0,VALID,100,VALID,-0.152827,VALID,18.9988,VALID,173,VALID,0.50218,
2007-10-16, 03:11:01,VALID,917.813,VALID,0,VALID,100,VALID,-0.118866,VALID,18.9888,VALID,185,VALID,0.655678,
2007-10-16, 03:12:01,VALID,917.819,VALID,0,VALID,100,VALID,-0.135847,VALID,18.9828,VALID,187,VALID,0.953819,
2007-10-16, 03:13:00,VALID,917.817,VALID,0,VALID,100,VALID,-0.118866,VALID,18.9861,VALID,187,VALID,1.01181,
2007-10-16, 03:14:00,VALID,917.819,VALID,0,VALID,100,VALID,-0.135847,VALID,18.9726,VALID,178,VALID,0.923735,
2007-10-16, 03:15:00,VALID,917.825,VALID,0,VALID,100,VALID,-0.135847,VALID,18.9629,VALID,178,VALID,1.11345,
2007-10-16, 03:16:00,VALID,917.832,VALID,0,VALID,100,VALID,-0.152827,VALID,18.9731,VALID,183,VALID,1.03981,
2007-10-16, 03:17:00,VALID,917.822,VALID,0,VALID,100,VALID,-0.135847,VALID,18.9466,VALID,181,VALID,1.00036,
2007-10-16, 03:18:00,VALID,917.83,VALID,0,VALID,100,VALID,-0.101885,VALID,18.9501,VALID,181,VALID,0.934659,
2007-10-16, 03:19:00,VALID,917.823,VALID,0,VALID,100,VALID,-0.118866,VALID,18.9372,VALID,178,VALID,0.865663,
2007-10-16, 03:20:00,VALID,917.828,VALID,0,VALID,100,VALID,-0.169808,VALID,18.9374,VALID,169,VALID,0.846701,
2007-10-16, 03:21:00,VALID,917.817,VALID,0,VALID,100,VALID,-0.169808,VALID,18.9242,VALID,173,VALID,0.88151,
2007-10-16, 03:22:00,VALID,917.798,VALID,0,VALID,100,VALID,-0.0679233,VALID,18.9237,VALID,176,VALID,0.759142,
2007-10-16, 03:23:00,VALID,917.792,VALID,0,VALID,100,VALID,-0.0169808,VALID,18.9098,VALID,176,VALID,0.706287,
2007-10-16, 03:24:00,VALID,917.784,VALID,0,VALID,100,VALID,-0.0169808,VALID,18.9065,VALID,176,VALID,0.655035,
2007-10-16, 03:25:00,VALID,917.781,VALID,0,VALID,100,VALID,0,VALID,18.8961,VALID,175,VALID,0.573552,
2007-10-16, 03:26:00,VALID,917.774,VALID,0,VALID,100,VALID,-0.0339617,VALID,18.8968,VALID,170,VALID,0.745046,
2007-10-16, 03:27:00,VALID,917.763,VALID,0,VALID,100,VALID,-0.0169808,VALID,18.8998,VALID,164,VALID,0.668359,
2007-10-16, 03:28:00,VALID,917.767,VALID,0,VALID,100,VALID,-0.0339617,VALID,18.8968,VALID,162,VALID,0.272866,
2007-10-16, 03:29:00,VALID,917.769,VALID,0,VALID,100,VALID,-0.0339617,VALID,18.8741,VALID,162,VALID,0,
2007-10-16, 03:30:00,VALID,917.773,VALID,0,VALID,100,VALID,-0.0339617,VALID,18.8609,VALID,162,VALID,0,
2007-10-16, 03:31:00,VALID,917.784,VALID,0,VALID,100,VALID,-0.0169808,VALID,18.8546,VALID,162,VALID,0,
2007-10-16, 03:32:00,VALID,917.789,VALID,0,VALID,100,VALID,-0.0679233,VALID,18.822,VALID,162,VALID,0,
2007-10-16, 03:33:00,VALID,917.794,VALID,0,VALID,100,VALID,-0.0679233,VALID,18.8157,VALID,162,VALID,0,
2007-10-16, 03:34:00,VALID,917.793,VALID,0,VALID,100,VALID,0,VALID,18.803,VALID,262,VALID,0.316311,
2007-10-16, 03:35:00,VALID,917.809,VALID,0,VALID,100,VALID,-0.0339617,VALID,18.7865,VALID,313,VALID,0.646949,
2007-10-16, 03:36:00,VALID,917.815,VALID,0,VALID,100,VALID,-0.0169808,VALID,18.7471,VALID,313,VALID,0.40659,
2007-10-16, 03:37:00,VALID,917.821,VALID,0,VALID,100,VALID,-0.0339617,VALID,18.7117,VALID,313,VALID,0,
2007-10-16, 03:38:00,VALID,917.813,VALID,0,VALID,100,VALID,-0.0339617,VALID,18.7087,VALID,313,VALID,0,